Skip Navigation Linkswww.weather.gov 
NOAA logo - Click to go to the NOAA homepage National Weather Service Forecast Office   NWS logo - Click to go to the NWS homepage    
Los Angeles, California
navigation bar decoration      
spacer
Printer Friendly  |   Go Back  |  Version: Current   1   2   3   4   5   6   7   8   9   10   |  Font:  A A A  |  

HOURLY WEATHER ROUNDUP
That Version is not available. Latest version shown.
 
 ASUS46 KSTO 281709
RWRCA

NORTHERN AND CENTRAL CA REGIONAL WEATHER ROUNDUP
NATIONAL WEATHER SERVICE SACRAMENTO CA
1000 AM PDT SAT MAR 28 2015

NOTE: FAIR INDICATES FEW OR NO CLOUDS BELOW 12,000 FEET WITH NO
SIGNIFICANT WEATHER AND/OR OBSTRUCTIONS TO VISIBILITY.

CAZ001-003-281800-
NORTHWEST AREA

CITY SKY/WX TMP DP RH WIND PRES REMARKS
CRESCENT CITY CLOUDY 51 47 86 N3 30.40S
ARCATA NOT AVBL
SHELTER COVE NOT AVBL
UKIAH SUNNY 57 44 62 CALM 30.25S
$$

CAZ006-505>513-281800-
BAY AREA

CITY SKY/WX TMP DP RH WIND PRES REMARKS
SANTA ROSA MOSUNNY 61 45 55 N12 30.19R
SAN RAFAEL N/A 54 MM MM MISG
NAPA SUNNY 56 51 84 CALM 30.20R
CONCORD MOSUNNY 63 46 54 CALM 30.19R
OAKLAND CITY N/A 59 MM MM MISG
OAKLAND PTSUNNY 59 53 80 CALM 30.20R
SAN FRAN CITY N/A 59 MM 77 MISG
SAN FRAN ARPT MOSUNNY 61 54 77 CALM 30.20R
LIVERMORE MOSUNNY 59 50 72 CALM 30.19R
HAYWARD MOSUNNY 63 52 67 W6 30.19R
REDWOOD CITY N/A MM MM MM MISG
MOFFETT ARPT MOSUNNY 61 51 70 NW6 30.20R
SAN JOSE ARPT PTSUNNY 61 52 72 NW7 30.19R
$$
CAZ034-037-514>518-281800-
CENTRAL COAST

CITY SKY/WX TMP DP RH WIND PRES REMARKS
WATSONVILLE SUNNY 60 52 74 SE6 30.16R
SALINAS CLOUDY 56 50 80 SE7 30.16R
MONTEREY SUNNY 60 51 72 VRB5 30.16R
PT PIEDRAS BLS NOT AVBL
SAN LUIS OBISP SUNNY 65 51 60 NW12 30.10R
SANTA MARIA MOSUNNY 59 50 72 NW5 30.11R
$$
CAZ015-016-281800-
NORTHERN SACRAMENTO VALLEY

CITY SKY/WX TMP DP RH WIND PRES REMARKS
REDDING SUNNY 66 35 31 N15 30.23S
RED BLUFF SUNNY 66 37 34 N16 30.22S
OROVILLE SUNNY 65 45 48 NW8 30.19R
$$
CAZ016>018-281800-
SOUTHERN SACRAMENTO VALLEY

CITY SKY/WX TMP DP RH WIND PRES REMARKS
AUBURN MOSUNNY 66 43 42 NW3 30.17S
LINCOLN FAIR 61 50 67 NW8 30.16S
MARYSVILLE SUNNY 64 43 46 N15 30.18R
SAC INTL ARPT MOSUNNY 65 44 46 NW13G18 30.17R
MATHER AIRPORT MOSUNNY 59 46 63 N9 30.16R
DOWNTOWN SAC N/A 62 MM MM MISG
SAC EXEC ARPT MOSUNNY 63 45 51 NW12G20 30.17R
VACAVILLE MOSUNNY 71 38 29 VRB5 30.19R
TRAVIS AFB SUNNY 62 51 66 VRB1 30.17R
$$
CAZ019>021-281800-
SAN JOAQUIN VALLEY

CITY SKY/WX TMP DP RH WIND PRES REMARKS
STOCKTON MOSUNNY 62 52 69 W12 30.16R
MODESTO SUNNY 64 50 60 NW18 30.14R
MERCED SUNNY 63 49 60 NW13 30.13R
LEMOORE SUNNY 68 45 43 N20 30.15R
FRESNO SUNNY 67 48 50 W5 30.13S
HANFORD SUNNY 67 49 52 NW12 30.13R
PORTERVILLE SUNNY 66 46 48 SW7 30.13S
BAKERSFIELD SUNNY 72 45 37 NW8 30.13R
$$
CAZ011-012-071-281800-
NORTHERN MOUNTAINS

CITY SKY/WX TMP DP RH WIND PRES REMARKS
YREKA SUNNY 48 34 58 N8 30.40R
MOUNT SHASTA SUNNY 49 31 49 VRB7 30.35R
ALTURAS SUNNY 44 25 47 CALM 30.38R
$$
CAZ011-012-071-281800-
SIERRA NEVADA MTNS

CITY SKY/WX TMP DP RH WIND PRES REMARKS
BLUE CANYON SUNNY 60 25 26 MISG 30.30R
TRUCKEE SUNNY 46 32 57 CALM 30.32F
TAHOE VLY ARPT SUNNY 55 29 36 CALM 30.32S
MAMMOTH LAKES FAIR 57 19 23 SE5 30.33S
$$



Webmaster
US Dept of Commerce
National Oceanic and Atmospheric Administration
National Weather Service
Los Angeles/Oxnard Weather Forecast Office
520 North Elevar Street
Oxnard, CA 93030

Tel: (805) 988-6610

Disclaimer
Information Quality
Credits
Glossary
Organization
Privacy Policy
Freedom of Information Act
About Us
Career Opportunities